Monument Pass, CO

7:41 PM MDT on March 29, 2017 (GMT -0600)
Monument Pass

Weather History for KMNH - February, 2012

Change the Weather History Date:

Monday, February 13, 2012

  Actual Average Record
Temperature  
Mean Temperature 28 °F -  
Max Temperature 33 °F - 55 °F (2011)
Min Temperature 23 °F - -5 °F (2004)
Degree Days  
Heating Degree Days 37    
Month to date heating degree days  
Cooling Degree Days 0    
Month to date cooling degree days  
Moisture  
Dew Point 25 °F    
Average Humidity 87    
Maximum Humidity 100    
Minimum Humidity 69    
Precipitation  
Precipitation 0.00 in - 0.02 in (2007)
Sea Level Pressure  
Sea Level Pressure 29.67 in    
Wind  
Wind Speed 7 mph (North)    
Max Wind Speed 10 mph    
Max Gust Speed -    
Visibility 8 miles    
Events Fog    
T = Trace of Precipitation, MM = Missing Value Source: NWS Daily Summary

Daily Weather History Graph

Daily Weather History Graph

Search for Another Location

Airport or City:

Trip Planner

Search our weather history database for the weather conditions in past years. The results will help you decide how hot, cold, wet, or windy it might be!

Date:

Astronomy

Feb. 13, 2012 Rise Set
Actual Time 6:53 AM MST 5:32 PM MST
Civil Twilight 6:25 AM MST 6:00 PM MST
Nautical Twilight 5:54 AM MST 6:31 PM MST
Astronomical Twilight 5:23 AM MST 7:02 PM MST
Moon No Moon Rise 9:56 AM MST (2/13)
Length of Visible Light 11h 34m
Length of Day
10h 39m
Waning Gibbous, 61% of the Moon is Illuminated
Feb 13
Waning Gibbous
Feb 14
Last Quarter
Feb 21
New
Feb 29
First Quarter
Mar 8
Full

Hourly Weather History & Observations

Time (MST) Temp. Windchill Dew Point Humidity Pressure Visibility Wind Dir Wind Speed Gust Speed Precip Events Conditions
12:16 AM 26.6 °F 18.2 °F 24.8 °F 93% 29.61 in 2.0 mi West 8.1 mph - N/A   Overcast
12:36 AM 24.8 °F 16.9 °F 24.8 °F 100% 29.60 in 3.0 mi West 6.9 mph - N/A   Overcast
12:56 AM 24.8 °F 15.3 °F 23.0 °F 93% 29.60 in 5.0 mi West 9.2 mph - N/A   Overcast
1:16 AM 23.0 °F 14.7 °F 23.0 °F 100% 29.60 in 5.0 mi West 6.9 mph - N/A   Overcast
1:36 AM 24.8 °F 16.9 °F 24.8 °F 100% 29.60 in 7.0 mi West 6.9 mph - N/A   Overcast
1:56 AM 26.6 °F 19.1 °F 24.8 °F 93% 29.60 in 10.0 mi WNW 6.9 mph - N/A   Overcast
2:16 AM 26.6 °F 19.1 °F 24.8 °F 93% 29.59 in 7.0 mi WNW 6.9 mph - N/A   Overcast
2:36 AM 28.4 °F 21.2 °F 26.6 °F 93% 29.59 in 7.0 mi WNW 6.9 mph - N/A   Overcast
2:56 AM 28.4 °F 20.4 °F 26.6 °F 93% 29.59 in 7.0 mi NW 8.1 mph - N/A   Overcast
3:16 AM 28.4 °F 22.2 °F 26.6 °F 93% 29.59 in 5.0 mi NW 5.8 mph - N/A   Overcast
3:56 AM 28.4 °F 22.2 °F 26.6 °F 93% 29.60 in 7.0 mi NNW 5.8 mph - N/A   Overcast
4:16 AM 28.4 °F 21.2 °F 26.6 °F 93% 29.60 in 3.0 mi North 6.9 mph - N/A   Overcast
4:36 AM 28.4 °F 22.2 °F 28.4 °F 100% 29.60 in 4.0 mi North 5.8 mph - N/A   Overcast
4:56 AM 28.4 °F 23.3 °F 26.6 °F 93% 29.61 in 5.0 mi NW 4.6 mph - N/A   Overcast
5:16 AM 28.4 °F 23.3 °F 28.4 °F 100% 29.61 in 1.8 mi NNW 4.6 mph - N/A   Overcast
5:36 AM 26.6 °F 20.0 °F 26.6 °F 100% 29.61 in 1.0 mi NNW 5.8 mph - N/A   Overcast
5:56 AM 26.6 °F 20.0 °F 24.8 °F 93% 29.62 in 0.8 mi North 5.8 mph - N/A   Mostly Cloudy
6:16 AM 28.4 °F 20.4 °F 28.4 °F 100% 29.63 in 0.2 mi North 8.1 mph - N/A Fog Light Freezing Fog
6:36 AM 28.4 °F 22.2 °F 28.4 °F 100% 29.64 in 0.5 mi North 5.8 mph - N/A Fog Light Freezing Fog
6:56 AM 28.4 °F 22.2 °F 28.4 °F 100% 29.65 in 1.2 mi NW 5.8 mph - N/A   Overcast
7:16 AM 28.4 °F 21.2 °F 28.4 °F 100% 29.66 in 7.0 mi NW 6.9 mph - N/A   Overcast
7:36 AM 28.4 °F 22.2 °F 26.6 °F 93% 29.66 in 7.0 mi North 5.8 mph - N/A   Overcast
7:56 AM 28.4 °F 23.3 °F 26.6 °F 93% 29.67 in 4.0 mi NW 4.6 mph - N/A   Overcast
8:15 AM 28.4 °F 22.2 °F 26.6 °F 93% 29.68 in 10.0 mi NW 5.8 mph - N/A   Mostly Cloudy
8:36 AM 26.6 °F 20.0 °F 24.8 °F 93% 29.69 in 7.0 mi North 5.8 mph - N/A   Mostly Cloudy
8:56 AM 28.4 °F 20.4 °F 26.6 °F 93% 29.70 in 10.0 mi North 8.1 mph - N/A   Overcast
9:16 AM 28.4 °F 19.7 °F 26.6 °F 93% 29.70 in 10.0 mi NNE 9.2 mph - N/A   Overcast
9:36 AM 28.4 °F 20.4 °F 26.6 °F 93% 29.71 in 10.0 mi North 8.1 mph - N/A   Overcast
9:56 AM 28.4 °F 19.1 °F 26.6 °F 93% 29.71 in 10.0 mi NNE 10.4 mph - N/A   Overcast
10:16 AM 30.2 °F 22.6 °F 26.6 °F 86% 29.71 in 10.0 mi NNE 8.1 mph - N/A   Overcast
10:36 AM 30.2 °F 22.6 °F 26.6 °F 86% 29.71 in 10.0 mi NNE 8.1 mph - N/A   Mostly Cloudy
10:55 AM 32.0 °F 24.8 °F 24.8 °F 75% 29.72 in 10.0 mi North 8.1 mph - N/A   Scattered Clouds
11:16 AM 32.0 °F 24.2 °F 24.8 °F 75% 29.72 in 10.0 mi North 9.2 mph - N/A   Clear
11:36 AM 32.0 °F 24.8 °F 24.8 °F 75% 29.72 in 10.0 mi North 8.1 mph - N/A   Mostly Cloudy
11:56 AM 32.0 °F 24.2 °F 24.8 °F 75% 29.71 in 10.0 mi North 9.2 mph - N/A   Overcast
12:16 PM 32.0 °F 24.2 °F 24.8 °F 75% 29.71 in 10.0 mi North 9.2 mph - N/A   Mostly Cloudy
12:36 PM 32.0 °F 25.6 °F 24.8 °F 75% 29.70 in 10.0 mi NNE 6.9 mph - N/A   Scattered Clouds
12:56 PM 32.0 °F 24.8 °F 23.0 °F 69% 29.70 in 10.0 mi NNE 8.1 mph - N/A   Clear
1:15 PM 32.0 °F 24.8 °F 24.8 °F 75% 29.70 in 10.0 mi North 8.1 mph - N/A   Clear
1:36 PM 32.0 °F 24.2 °F 23.0 °F 69% 29.69 in 10.0 mi NNE 9.2 mph - N/A   Clear
1:56 PM 32.0 °F 27.5 °F 24.8 °F 75% 29.69 in 10.0 mi NNE 4.6 mph - N/A   Clear
2:36 PM 33.8 °F - 24.8 °F 70% 29.70 in 10.0 mi Calm Calm - N/A   Clear
2:56 PM 32.0 °F 28.7 °F 24.8 °F 75% 29.70 in 10.0 mi SSW 3.5 mph - N/A   Scattered Clouds
3:16 PM 30.2 °F 26.7 °F 24.8 °F 80% 29.71 in 10.0 mi SSW 3.5 mph - N/A   Mostly Cloudy
3:36 PM 32.0 °F - 24.8 °F 75% 29.71 in 10.0 mi Calm Calm - N/A   Scattered Clouds
3:56 PM 28.4 °F 24.6 °F 23.0 °F 80% 29.70 in 10.0 mi SE 3.5 mph - N/A   Scattered Clouds
4:15 PM 28.4 °F 20.4 °F 23.0 °F 80% 29.71 in 10.0 mi SSE 8.1 mph - N/A   Clear
4:35 PM 28.4 °F 22.2 °F 23.0 °F 80% 29.71 in 10.0 mi SE 5.8 mph - N/A   Scattered Clouds
4:56 PM 28.4 °F 21.2 °F 23.0 °F 80% 29.72 in 10.0 mi SE 6.9 mph - N/A   Scattered Clouds
5:16 PM 28.4 °F 22.2 °F 23.0 °F 80% 29.73 in 10.0 mi SE 5.8 mph - N/A   Scattered Clouds
5:35 PM 28.4 °F 23.3 °F 21.2 °F 74% 29.73 in 10.0 mi ESE 4.6 mph - N/A   Mostly Cloudy
5:55 PM 28.4 °F 23.3 °F 21.2 °F 74% 29.73 in 10.0 mi SE 4.6 mph - N/A   Mostly Cloudy
6:36 PM 26.6 °F 20.0 °F 21.2 °F 80% 29.74 in 10.0 mi SE 5.8 mph - N/A   Overcast
6:56 PM 24.8 °F 16.9 °F 21.2 °F 86% 29.75 in 10.0 mi SE 6.9 mph - N/A   Mostly Cloudy
7:16 PM 26.6 °F 20.0 °F 21.2 °F 80% 29.76 in 10.0 mi SE 5.8 mph - N/A   Scattered Clouds
7:36 PM 26.6 °F 19.1 °F 21.2 °F 80% 29.75 in 10.0 mi SSE 6.9 mph - N/A   Mostly Cloudy
7:56 PM 26.6 °F 18.2 °F 21.2 °F 80% 29.76 in 10.0 mi SSE 8.1 mph - N/A   Overcast
8:15 PM 26.6 °F 18.2 °F 21.2 °F 80% 29.76 in 10.0 mi SSE 8.1 mph - N/A   Overcast
8:36 PM 26.6 °F 17.5 °F 21.2 °F 80% 29.76 in 10.0 mi South 9.2 mph - N/A   Mostly Cloudy
8:55 PM 28.4 °F 21.2 °F 19.4 °F 69% 29.76 in 10.0 mi SSE 6.9 mph - N/A   Scattered Clouds
9:15 PM 26.6 °F 17.5 °F 19.4 °F 74% 29.76 in 10.0 mi SSE 9.2 mph - N/A   Clear
9:36 PM 26.6 °F 15.7 °F 19.4 °F 74% 29.76 in 10.0 mi South 12.7 mph - N/A   Clear
9:56 PM 26.6 °F 15.7 °F 21.2 °F 80% 29.77 in 10.0 mi South 12.7 mph - N/A   Clear
10:16 PM 23.0 °F 13.9 °F 19.4 °F 86% 29.76 in 10.0 mi South 8.1 mph - N/A   Scattered Clouds
10:56 PM 23.0 °F 11.7 °F 19.4 °F 86% 29.75 in 10.0 mi South 11.5 mph - N/A   Scattered Clouds
11:36 PM 24.8 °F 11.9 °F 19.4 °F 80% 29.75 in 10.0 mi South 16.1 mph - N/A   Clear
11:56 PM 23.0 °F 11.7 °F 17.6 °F 80% 29.75 in 10.0 mi South 11.5 mph - N/A   Clear